BARDUFOSS_(CIV/MIL) current weather conditions

sailwx.info

Wind from 270 at 18 knots gusting 34

Air temperature -0.0° C
Visibility: greater than 4.9 NM
Dewpoint -2.0° C
Present weather: Light snow showers.

Last reported at 2020-Jan-21 04:50 UTC.
Time now 2020-Jan-21 06:19 UTC

Location: N 69°03' E 018°33'.
View on Google Maps.

See reports from other nearby stations

  
Tides and Currents Weather Stations Pressure Air Temp Water Temp Dewpoint Dewpoint Depression Visibility Wind Speed Wind Dir Waves Ship Positions
date/time (UTC)wind fromknots sea level pressurealtimeterstation pressurevisibilityair tempwater tempwave heightnotes
2020-Jan-21 04:50 270 18 gusting 34 4.9-0.0 Light snow showers.
2020-Jan-21 04:20 270 15 5.4 1.0 Light snow showers.
2020-Jan-21 03:50 260 12 gusting 25 1.8 1.0 Light snow.
2020-Jan-21 03:20 270 14 0.3 1.0 Light snow.
2020-Jan-21 02:50 260 14 gusting 29 1.6 1.0 Light snow.
2020-Jan-21 02:20 260 6 1.3 1.0 Light snow.
2020-Jan-21 01:50 5.4 1.0 Light rain snow.
2020-Jan-21 01:20 200 8 5.4 2.0 Light rain.
2020-Jan-21 00:50 220 6 5.4 2.0
2020-Jan-21 00:20 230 4 5.4-0.0
2020-Jan-20 23:50 5.4-1.0
2020-Jan-20 23:20 5.4-1.0
2020-Jan-20 22:50 5.4-1.0
2020-Jan-20 22:20 5.4-0.0
2020-Jan-20 21:50 5.4 1.0
2020-Jan-20 20:50 050 4 5.4 1.0 Showers in the vicinity.
2020-Jan-20 19:50 170 4 5.4 2.0 Showers in the vicinity.
2020-Jan-20 18:50 270 13 5.4 2.0 Light drizzle snow.
2020-Jan-20 17:50 210 6 5.4 3.0 Light rain.
2020-Jan-20 17:20 220 6 5.4 3.0 Light drizzle snow.
2020-Jan-20 16:50 210 6 5.4 3.0 Light drizzle snow.
2020-Jan-20 16:20 220 6 5.4 3.0 Light rain.
2020-Jan-20 15:50 200 6 5.4 4.0 Light rain.
2020-Jan-20 15:20 210 6 5.4 4.0 Light rain.
2020-Jan-20 14:50 210 8 5.4 4.0 Light rain.
2020-Jan-20 14:20 210 7 5.4 4.0 Light rain.
2020-Jan-20 13:50 200 6 5.4 3.0 Light rain.
2020-Jan-20 13:20 190 6 5.4 3.0 Light rain.
2020-Jan-20 12:50 210 6 5.4 3.0 Light rain.
2020-Jan-20 12:20 200 7 5.4 4.0 Light rain.
2020-Jan-20 11:50 220 8 5.4 4.0 Light rain.
2020-Jan-20 11:20 5.4 3.0 Light rain.
2020-Jan-20 10:50 220 6 4.9 3.0 Light rain.
2020-Jan-20 10:20 220 8 5.4 4.0 Light rain.
2020-Jan-20 09:50 250 7 5.4 6.0 Light rain.
2020-Jan-20 09:20 240 7 5.4 5.0 Light rain.
2020-Jan-20 08:50 270 14 gusting 27 5.4 5.0 Light rain.
2020-Jan-20 08:20 270 17 gusting 29 5.4 5.0 Light rain.
2020-Jan-20 07:50 260 17 gusting 27 5.4 5.0 Light rain.
2020-Jan-20 07:20 250 8 gusting 22 5.4 4.0 Light rain.
2020-Jan-20 06:50 210 8 5.4 3.0 Light rain.
2020-Jan-20 06:20 5.4 2.0 Showers in the vicinity.
2020-Jan-20 05:50 4.9-0.0 Light snow.
2020-Jan-20 05:20 130 4 5.4-0.0 Light snow.
2020-Jan-20 04:50 1.3-1.0 Light snow.
2020-Jan-20 04:20 1.3-1.0 Light snow.
2020-Jan-20 03:50 2.7-2.0 Light snow.
2020-Jan-20 03:20 0.5-2.0 Snow.
2020-Jan-20 02:50 1.5-2.0 Light snow.
2020-Jan-20 02:20 5.4-2.0 Light snow.
2020-Jan-20 01:50 100 8 5.4-2.0
2020-Jan-20 01:20 170 5 5.4-2.0
2020-Jan-20 00:50 170 6 5.4 1.0
2020-Jan-20 00:20 180 6 5.4 1.0
2020-Jan-19 23:50 180 6 5.4 1.0 Light rain snow.
2020-Jan-19 23:20 200 6 3.8-0.0 Light snow.
2020-Jan-19 22:50 190 8 5.4-0.0 Light snow.
2020-Jan-19 21:50 1.6-5.0 Light snow.
2020-Jan-19 20:50 4.9-5.0 Light snow.
2020-Jan-19 19:50 5.4-5.0 Light snow.
2020-Jan-19 18:50 5.4-6.0
2020-Jan-19 17:50 110 2 5.4-5.0
2020-Jan-19 17:20 5.4-6.0
2020-Jan-19 16:50 110 5 5.4-5.0
2020-Jan-19 16:20 120 2 5.4-5.0
2020-Jan-19 15:50 5.4-5.0
2020-Jan-19 15:20 5.4-6.0
2020-Jan-19 14:50 5.4-6.0
2020-Jan-19 14:20 5.4-6.0
2020-Jan-19 13:50 090 6 5.4-6.0
2020-Jan-19 13:20 100 5 5.4-6.0
2020-Jan-19 12:50 090 4 5.4-6.0
2020-Jan-19 12:20 100 4 5.4-6.0
2020-Jan-19 11:50 100 5 5.4-7.0
2020-Jan-19 11:20 120 2 5.4-8.0
2020-Jan-19 10:50 5.4-12.0
2020-Jan-19 10:20 5.4-16.0
2020-Jan-19 09:50 5.4-16.0
2020-Jan-19 09:20 5.4-16.0
2020-Jan-19 08:50 5.4-15.0
2020-Jan-19 08:20 5.4-16.0
2020-Jan-19 07:50 5.4-15.0
2020-Jan-19 07:20 5.4-14.0
2020-Jan-19 06:50 5.4-14.0
2020-Jan-19 06:20 5.4-14.0